Reflectivity
-20 -20 -20 -20 -20 -20 -20 -20 -20 -20 -20 -20 -20 -20 -20 -20 -20 -20 -20 -20 -20 -20 -20 -20 -20 -20 -20 -20 -20 -20 -20 -20 -20 -20 -20 -20 -20 -20 -20 -20 -20 -20 -20 -20 -20
-20 -20 -20 -20 -20 -20 -20 -20 -20 -20 -20 -20 -20 -20 -20 -20 -20 -20 -20 -20 -20 -20 -20 -20 -20 -20 -20 -20 -20 -20 -20 -20 -20 -20 -20 -20 -20 -20 -20 -20 -20 -20 -20 -20 -20
-20 -20 -20 -20 -20 -20 -20 -20 -20 -20 -20 -20 -20 -20 -20 -20 -20 -20 -20 -20 -20 -20 -20 -20 -20 -20 -20 -20 -20 -20 -20 -20 -20 -20 -20 -20 -20 -20 -20 -20 -20 -20 -19 -20 -19
-20 -20 -20 -20 -20 -20 -20 -20 -20 -20 -20 -20 -20 -20 -20 -20 -20 -20 -20 -20 -20 -20 -20 -20 -20 -20 -20 -20 -20 -20 -20 -20 -20 -20 -20 -20 -20 -20 -20 -20 25 -20 -17 -20 -20
-20 -20 -20 -20 -20 -20 -20 -20 -20 -20 -20 -20 -20 -20 -20 -20 -20 -20 -20 -20 -20 -20 -20 -20 -20 -20 -20 -20 -20 -20 -20 -20 -20 -20 -20 -20 -20 -20 -20 -20 2 -4 10 -20 -20
-20 -20 -20 -20 -20 -20 -20 -20 -20 -20 -20 -20 -20 -20 -20 -20 -20 -20 -20 -20 -20 -20 -20 -20 -20 -20 -20 -20 -20 -20 -20 -20 -20 -20 -20 -20 -20 -20 -20 -20 -20 -20 -20 -20 -20
-20 -20 -20 -20 -20 -20 -20 -20 -20 -20 -20 -20 -20 -20 -20 -20 -20 -20 -20 -20 -20 -20 -20 -20 -20 -20 -20 -20 -20 -20 -20 -20 -20 -20 -20 -20 -20 -20 -20 -20 -20 -19 -20 -20 -20
-20 -20 -20 -20 -20 -20 -20 -20 -20 -20 -20 -20 -20 -20 -20 -20 -20 -20 -20 -20 -20 -20 -20 -20 -20 -20 -20 -20 -20 -20 -20 -20 -20 -20 -20 -20 -20 -20 -20 -20 -20 -20 -20 -20 -20
-20 -20 -20 -20 -20 -20 -20 -20 -20 -20 -20 -20 -20 -20 -20 -20 -19 -20 -20 -20 -20 -20 -20 -20 -20 -20 -20 -20 -20 -20 -20 -20 -20 -20 -20 -20 -20 -20 -20 -20 -20 -20 -20 -20 -20
-20 -20 -20 -20 -20 -20 -20 -20 -20 -20 -20 -20 -20 -20 -20 -20 -20 -20 -20 -20 -20 -20 -20 -20 -20 -20 -20 -20 -20 -20 -20 -20 -20 -20 -20 -20 -20 -20 -20 -20 -20 -20 -20 -20 -20
-20 -20 -20 -20 -20 -20 -20 -20 -20 -20 -20 -20 -20 -20 -20 -20 -20 -20 -20 -20 -20 -20 -20 -20 -20 -20 -20 -20 -20 -20 -20 -20 -20 -20 -20 -20 -20 -20 -20 -20 -20 -20 -20 -20 -20
-20 -20 -20 -20 -20 -20 -20 -20 -20 -20 -20 -20 -20 -20 -20 -20 -20 -20 -20 -20 -20 -20 -20 -20 -20 -20 -20 -20 -20 -20 -20 -20 -20 -20 -20 -20 -20 -20 -20 -20 -20 -20 -20 -20 -20
-20 -20 -20 -20 -20 -20 -20 -20 -20 -20 -20 -20 -20 -20 -20 -20 -20 -20 -20 -20 -20 -20 -20 -20 -20 -20 -20 -20 -20 -20 -20 -20 -20 -20 -20 -20 -20 -20 -20 -20 -20 -20 -20 -20 -20
-20 -20 -20 -20 -20 -20 -20 -20 -20 -20 -20 -20 -20 -20 -20 -20 -20 -20 -20 -20 -20 -20 -20 -20 -20 -20 -20 -20 -20 -20 -20 -20 -20 -20 -20 -20 -20 -20 -20 -20 -20 -20 -20 -20 -20
-20 -20 -20 -20 -20 -20 -20 -20 -20 -20 -20 -20 -20 -20 -20 -20 -20 -20 -20 -20 -20 -20 -20 -20 -20 -20 -20 -20 -20 -20 -20 -20 -20 -20 -20 -20 -20 -20 -20 -20 -20 -20 -20 -20 -20
-20 -20 -20 -20 -20 -20 -20 -20 -20 -20 -20 -20 -20 -20 -20 -20 -20 -20 -20 -20 -20 -20 -20 -20 -20 -20 -20 -20 -20 -20 -20 -20 -20 -20 -20 -20 -20 -20 -20 -20 -20 -20 -20 -20 -20
-8 -20 -20 -20 -20 -20 -20 -20 -20 -20 -20 -20 -20 -20 -20 -20 -20 -20 -20 -20 -20 -20 -20 -20 -20 -20 -20 -20 -20 -20 -20 -20 -20 -20 -20 -20 -20 -20 -20 -20 -20 -20 -20 -20 -20
9 11 -17 -20 -20 -20 -20 -20 -20 -20 -20 -20 -20 -20 -20 -20 -20 -20 -20 -20 -20 -20 -20 -20 -20 -20 -20 -20 -20 -20 -20 -20 -20 -20 -20 -20 -20 -20 -20 -20 -20 -20 -20 -20 -20
15 -3 2 -20 -20 -20 -20 -20 -20 -20 -20 -20 -20 -20 -20 -20 -20 -20 -20 -20 -20 -20 -20 -20 -20 -20 -20 -20 -20 -20 -20 -20 -20 -20 -20 -20 -20 -20 -20 -20 -20 -20 -20 -20 -20
13 16 14 -20 -20 -20 -20 -20 -20 -20 -20 -20 -20 -20 -20 -20 -20 -20 -20 -20 -20 -20 -20 -20 -20 -20 -20 -20 -20 -20 -20 -20 -20 -20 -20 -20 -20 -20 -20 -20 -20 -20 -20 -20 -20
13 32 16 -20 -7 -20 -20 -20 -20 -20 -20 -20 -20 -20 -20 -20 -20 -20 -20 -20 -20 -20 -20 -20 -20 -20 -20 -20 -20 -20 -20 -20 -20 -20 -20 -20 -20 -20 -20 -20 -20 -20 -20 -20 -20
17 26 19 -20 20 1 -20 -20 -20 -20 -20 -20 -20 -20 -20 -20 -20 -20 -20 -20 -20 -20 -20 -20 -20 -20 -20 -20 -20 -20 -20 -20 -20 -20 -20 -20 -20 -20 -20 -20 -20 -20 -20 -20 -20
27 18 24 16 -5 4 -20 -20 -20 -20 -20 -20 -20 -20 -20 -20 -20 -20 -20 -20 -20 -20 -20 -20 -20 -20 -20 -20 -20 -20 -20 -20 -20 -20 -20 -20 -20 -20 -20 -20 -20 -20 -20 -20 -20
34 27 35 29 -20 -20 -20 -20 -20 -20 -20 -20 -20 -20 -20 -20 -20 -20 -20 -20 -20 -20 -20 -20 -20 -20 -20 -20 -20 -20 -20 -20 -20 -20 -20 -20 -20 -20 -20 -20 -20 -20 -20 -20 -20
37 27 27 30 6 -20 -20 -20 -20 -20 -20 -20 -20 -20 -20 -20 -20 -20 -20 -20 -20 -20 -20 -20 -20 -20 -20 -20 -20 -20 -20 -20 -20 -20 -20 -20 -20 -20 -20 -20 -20 -20 -20 -20 -20
24 25 30 25 15 -17 -20 13 -20 -20 -20 -20 -20 -20 -20 -20 -20 -20 -20 -20 -20 -20 -20 -20 -20 -20 -20 -20 -20 -20 -20 -20 -20 -20 -20 -20 -20 -20 -20 -20 -20 -20 -20 -20 -20
23 17 35 3 20 18 -16 -20 -20 -20 -20 -20 -20 -20 -17 -20 -20 -20 -20 -20 -20 -20 -20 -20 -20 -20 -20 -20 -20 -20 -20 -20 -20 -20 -20 -20 -20 -20 -20 -20 -20 -20 -20 -20 -20
Wind_Speed
20 21 21 21 20 20 19 19 18 18 17 17 17 15 14 13 16 2 8 12 6 9 2 4 4 5 4 3 4 4 4 4 6 6 5 5 6 4 3 10 3 6 7 7 22
20 21 22 22 22 20 20 20 20 19 18 17 17 16 12 12 3 9 13 12 9 7 3 4 2 6 3 4 3 5 4 10 9 6 5 2 6 9 6 5 1 5 10 22 21
20 21 22 23 22 22 21 21 21 20 18 17 17 16 11 7 4 10 7 17 13 9 2 6 3 2 2 2 4 5 8 7 8 6 0 4 3 6 12 5 8 14 18 19 21
20 20 22 24 23 23 22 21 23 21 20 17 17 15 14 1 5 3 3 12 13 10 4 2 2 2 0 4 3 3 7 8 1 7 3 4 6 7 13 11 9 21 25 21 19
19 21 22 23 24 24 23 22 22 22 21 18 16 12 3 1 11 4 6 13 9 8 7 5 4 3 1 3 3 3 1 2 4 8 2 1 2 7 13 6 17 18 17 18 17
18 19 21 23 24 24 24 23 23 21 20 18 13 8 2 4 5 1 7 6 8 7 7 6 6 7 4 5 3 3 3 2 5 4 5 4 2 2 4 14 18 21 18 17 19
19 20 21 23 24 24 24 25 24 23 20 17 8 4 2 15 4 5 3 4 5 7 6 5 5 3 2 4 4 3 2 4 1 2 4 3 1 3 13 16 20 21 17 14 14
19 19 21 22 24 25 27 26 26 24 16 10 5 3 9 5 3 2 5 3 5 4 3 6 6 3 4 2 6 4 5 1 5 1 3 4 7 3 13 21 16 17 15 17 13
18 19 21 22 24 25 28 31 26 11 2 6 4 2 11 6 4 6 7 7 4 3 5 2 4 4 4 5 4 5 3 4 6 8 2 3 2 6 8 15 16 14 15 15 10
18 19 21 22 24 26 30 29 13 4 3 3 4 2 6 4 4 4 6 7 4 2 4 5 4 3 3 4 5 4 2 3 4 3 3 2 4 11 9 14 14 9 12 12 15
16 19 21 23 25 25 18 8 7 3 2 7 4 5 6 7 4 5 5 7 4 3 5 3 4 6 8 6 5 3 2 4 8 3 2 6 2 14 11 8 9 10 10 15 13
15 17 20 23 25 27 3 4 5 6 11 10 14 13 10 2 5 5 9 7 6 7 5 1 8 8 6 7 4 3 2 9 9 6 6 4 10 6 11 10 15 16 13 15 6
13 14 18 23 29 5 2 4 10 9 4 10 7 7 8 10 9 8 10 8 5 6 6 9 6 8 6 4 4 4 5 7 10 1 3 3 7 3 2 4 8 14 9 7 10
11 11 14 23 4 6 2 12 11 4 3 10 7 11 8 8 6 9 8 8 3 12 7 7 6 7 4 7 7 6 10 12 8 4 4 2 4 2 4 6 14 16 12 12 12
11 8 8 8 6 6 7 13 11 4 4 8 6 2 6 13 6 7 6 3 10 6 8 9 9 6 5 14 6 11 3 11 5 4 4 2 4 6 3 7 15 15 17 13 15
12 7 4 2 1 7 12 13 2 7 12 7 5 7 7 4 5 4 4 5 5 6 2 9 2 7 9 6 10 4 3 6 4 3 1 4 5 6 6 9 10 10 14 15 16
12 9 3 3 5 5 10 3 4 7 5 7 6 6 7 7 5 6 7 9 8 7 7 3 5 3 5 2 1 4 5 2 3 4 7 4 4 10 7 8 8 17 18 19 16
16 9 5 5 4 1 5 1 6 7 12 5 3 6 11 7 7 7 6 7 4 6 5 7 7 9 4 9 7 7 9 8 6 4 6 3 4 6 6 6 7 9 16 14 15
16 2 3 5 6 5 2 6 15 8 6 5 5 4 5 5 7 7 8 8 11 9 10 8 7 4 6 6 9 4 3 5 8 4 3 3 6 6 5 7 4 7 9 13 15
4 2 5 6 11 4 4 18 8 7 3 5 7 4 9 7 8 10 10 7 7 11 7 8 3 5 5 6 3 9 8 4 4 6 4 5 4 5 3 3 3 5 9 10 10
4 3 5 11 8 3 11 13 8 8 3 2 5 5 3 7 8 7 8 4 13 10 13 7 6 6 5 5 8 3 3 5 5 5 8 2 8 8 11 9 10 10 11 11 13
3 4 4 12 8 5 15 9 3 10 9 5 4 4 6 5 3 7 11 9 10 11 14 11 8 8 10 5 4 6 9 8 8 5 2 5 9 4 9 9 7 9 9 9 12
4 3 4 6 10 8 15 13 4 5 6 5 6 3 3 6 2 2 1 2 3 10 13 9 4 2 8 4 2 5 5 5 5 4 8 8 7 2 4 5 7 9 10 8 9
4 3 4 5 6 12 9 14 13 7 9 2 3 3 1 1 2 2 2 2 2 1 6 9 6 10 14 5 6 5 5 6 7 5 7 7 5 4 6 7 5 8 10 6 10
3 5 5 6 11 16 7 6 17 7 14 6 5 9 2 2 3 4 3 3 2 2 3 7 7 6 5 9 7 6 7 9 7 6 8 7 10 8 4 5 4 6 8 5 8
5 2 4 3 6 18 12 7 9 16 8 13 10 1 7 9 7 1 5 3 5 0 2 2 2 3 2 5 6 4 7 8 5 4 3 4 4 3 4 5 7 8 7 8 7
3 3 4 3 4 8 18 18 9 8 11 12 8 11 13 9 7 8 6 3 4 7 4 3 6 4 4 4 6 3 7 6 5 3 6 6 7 4 5 6 6 6 6 7 8
Wind_Direction
355 353 351 349 346 343 343 343 339 337 334 330 327 324 328 327 314 166 234 220 188 153 120 118 104 143 155 199 172 116 74 228 243 186 237 187 168 128 88 131 223 174 149 157 143
354 351 348 346 344 341 339 339 336 334 332 329 323 321 324 335 296 252 229 208 179 153 168 192 211 163 160 172 178 136 156 224 214 183 212 170 147 135 113 149 319 58 84 131 143
352 349 346 343 341 338 335 335 331 330 328 326 321 317 320 329 315 248 210 194 169 163 213 180 205 151 131 165 212 189 215 206 250 222 143 144 150 145 126 227 202 163 141 148 149
348 346 343 342 340 336 333 331 326 326 323 323 318 317 314 183 270 268 353 191 136 141 172 180 180 130 153 231 203 246 262 178 245 168 127 251 142 167 165 210 148 161 154 147 157
342 341 341 338 338 335 330 326 320 319 317 316 314 315 298 227 251 299 88 122 119 129 171 180 153 121 277 259 279 256 299 31 323 124 145 21 256 166 207 80 126 129 142 153 166
337 336 335 337 335 332 327 321 315 313 309 308 307 304 220 240 250 106 117 140 142 137 173 163 192 195 245 245 171 222 72 348 349 21 150 163 150 96 52 115 122 140 160 168 180
334 334 333 334 331 329 324 318 313 307 304 296 288 247 242 235 126 102 131 171 164 162 163 192 191 158 199 278 171 153 110 327 332 275 255 173 148 149 130 134 142 163 164 178 190
332 331 331 331 330 327 323 318 311 310 298 274 215 207 248 246 259 253 155 279 179 225 160 199 189 202 186 304 22 65 51 78 265 284 325 80 275 102 148 140 158 168 169 190 186
326 328 330 330 329 327 324 316 311 319 124 136 138 191 264 307 211 217 163 204 170 167 216 224 156 197 38 90 25 14 184 230 311 199 125 165 200 175 154 153 171 171 182 184 195
323 326 328 329 329 328 324 309 290 312 168 208 261 352 268 235 237 187 194 166 196 126 164 170 72 138 47 87 208 218 239 256 269 246 131 235 221 171 167 175 177 164 191 197 204
319 324 327 328 327 327 336 348 11 5 1 215 213 251 290 315 283 212 162 123 168 134 163 179 129 198 210 184 170 164 206 287 263 237 175 249 288 187 191 161 149 181 189 214 215
314 321 326 328 322 323 315 29 48 273 302 255 253 260 266 73 310 285 132 144 146 194 147 94 212 210 204 156 194 193 238 270 292 222 165 302 289 192 182 186 180 175 199 214 195
303 318 327 328 318 347 305 45 322 324 254 282 218 213 218 155 212 256 155 150 151 163 191 197 207 174 176 202 196 210 198 257 232 329 45 45 324 81 42 110 178 210 198 222 204
288 313 333 337 11 330 310 328 323 296 318 272 232 245 173 159 244 209 186 142 176 182 165 222 212 193 176 228 172 260 209 232 246 145 200 159 261 306 190 178 199 206 208 209 219
273 294 338 5 292 309 328 322 309 64 342 250 212 243 180 160 155 238 172 86 172 174 129 229 170 172 183 231 147 235 186 205 195 149 118 282 77 264 138 222 215 208 212 208 225
261 263 353 25 293 262 320 307 61 52 249 285 196 162 127 179 184 114 143 88 153 146 207 215 171 153 201 236 174 232 78 42 44 68 12 197 129 282 213 209 200 206 219 212 224
250 236 165 141 253 322 329 335 70 168 267 246 199 161 168 175 184 165 164 168 159 150 207 357 251 218 187 267 107 113 90 334 344 353 226 168 103 235 254 236 182 195 202 212 216
261 229 222 202 191 37 346 133 171 217 225 318 260 143 180 150 216 192 145 178 239 121 149 170 279 191 184 184 191 189 163 154 194 208 256 327 225 246 288 316 219 205 197 192 205
269 192 211 232 198 115 192 207 213 177 197 242 318 143 230 205 164 155 197 200 194 174 161 161 243 278 174 176 146 205 172 190 105 358 50 240 291 314 349 29 57 144 153 192 209
237 220 224 168 139 121 197 238 219 197 321 179 212 195 192 200 171 174 179 200 206 184 166 201 173 213 234 132 210 158 168 91 0 138 209 291 280 227 245 207 156 175 203 212 218
219 232 245 153 139 152 213 234 242 267 19 299 219 237 210 191 193 191 201 248 194 185 188 150 131 262 106 184 180 142 151 60 117 139 179 173 262 215 195 197 200 211 210 200 208
177 210 239 146 179 184 224 209 257 222 246 263 300 243 193 192 183 196 208 211 182 155 182 188 160 218 214 220 203 177 185 164 149 208 167 168 251 252 212 192 192 240 229 211 202
197 245 223 199 187 213 233 228 272 219 221 211 224 268 219 186 207 228 209 356 321 166 163 168 199 144 331 352 349 198 182 128 107 90 180 156 253 223 207 266 246 252 275 182 214
165 229 257 209 228 214 213 228 209 239 273 311 301 317 235 227 269 238 310 352 352 170 84 143 143 178 220 199 164 192 185 158 141 135 172 203 209 278 237 218 242 268 267 247 190
200 219 208 199 202 222 212 214 212 214 218 161 235 217 224 290 222 226 242 292 2 109 80 130 171 158 197 182 172 188 171 171 167 178 162 205 192 226 273 316 358 333 331 282 229
171 193 265 264 208 203 227 212 224 209 201 230 226 226 201 205 201 259 200 185 222 136 99 35 178 130 107 145 168 159 184 171 169 159 225 165 216 157 124 90 41 9 1 354 291
196 211 260 260 207 210 211 221 232 204 225 233 205 219 229 220 228 231 216 232 188 163 159 124 132 93 195 152 135 298 204 175 171 117 145 161 206 153 149 93 63 6 350 336 327